Regional Weather Roundup
Issued by NWS

Home | Current Version | Previous Version | Graphics & Text | Print | Product List | Glossary On
Versions: 1 2 3 4 5 6 7 8 9 10 11 12 13 14 15 16 17 18 19 20 21 22 23 24 25 26 27 28
000
ASUS45 KBOI 021310
RWRID

IDAHO REGIONAL WEATHER ROUNDUP
NATIONAL WEATHER SERVICE BOISE ID
600 AM MST FRI DEC 02 2016

NOTE: "FAIR" INDICATES FEW OR NO CLOUDS BELOW 12000 FEET
WITH NO SIGNIFICANT WEATHER AND/OR OBSTRUCTIONS TO VISIBILITY

IDZ012-014-021400-
SOUTHWEST IDAHO


CITY           SKY/WX    TMP DP  RH WIND       PRES   REMARKS
BOISE          PTCLDY    19  17  92 S3        30.31S
CALDWELL       CLEAR     20  19  96 CALM      30.35R
MOUNTAIN HOME  CLEAR     23  23  99 N9        30.30R WCI  13
$$

IDZ016-017-021400-
SOUTHCENTRAL IDAHO


CITY           SKY/WX    TMP DP  RH WIND       PRES   REMARKS
BURLEY         CLOUDY    24  22  91 SW3       30.26R
JEROME         FOG       23  23 100 CALM      30.27R VSB 1/4
TWIN FALLS     CLOUDY    26  23  88 W8        30.27R WCI  18
$$

IDZ019>023-021400-
SOUTHEAST IDAHO


CITY           SKY/WX    TMP DP  RH WIND       PRES   REMARKS
IDAHO FALLS    FOG       18  15  88 CALM      30.23R VSB 1/4
POCATELLO      CLOUDY    25  23  92 W6        30.24R WCI  18
REXBURG        CLOUDY    19  17  92 CALM      30.21R
$$

IDZ006-010-011-018-031-032-021400-
CENTRAL IDAHO MOUNTAINS


CITY           SKY/WX    TMP DP  RH WIND       PRES   REMARKS
MCCALL         FOG       11   8  88 CALM      30.24R VSB 1/2
HAILEY         CLEAR     16  10  79 NW10      30.23S WCI   3
STANLEY          N/A      6   2  83 VRB6      30.21S WCI  -4
SALMON         CLOUDY    27  21  80 NE3       30.26S
CHALLIS        CLOUDY    21  21 100 SW3       30.22F
$$

IDZ002-004-006-007-026-021400-
NORTHERN IDAHO


CITY           SKY/WX    TMP DP  RH WIND       PRES   REMARKS
LEWISTON       CLEAR     30  27  88 CALM      30.37R
LOWELL           N/A     35  33  92 CALM      30.40R
COEUR D`ALENE  CLOUDY    26  26 100 S5        30.31F WCI  20
MULLAN PASS    CLOUDY    20  17  88 CALM      30.16R
$$




USA.gov is the U.S. government's official web portal to all federal, state and local government web resources and services.